EW6113 Weather Reports


Display with metric or nautical units.
time (UTC)temp
F
wind
direction
speed
MPH
gust
MPH
rain 1hr
in
rain 24hr
in
rain mn
in
humidity
%
barometer
mb
20260504081505 47 273 0.0 0.0 0.00 0.00 0.00 91 1015.7
20260504044540 53 51 1.0 3.0 0.00 0.00 0.00 85 1015.4
20260504043039 54 51 0.0 0.0 0.00 0.00 0.00 83 1015.3
20260504041534 54 51 0.0 3.0 0.00 0.00 0.00 83 1015.1
20260504040056 55 54 0.0 4.0 0.00 0.00 0.00 83 1014.8
20260504034531 55 78 0.0 3.0 0.00 0.00 0.00 82 1014.7
20260504033034 56 82 2.0 5.0 0.00 0.00 0.00 81 1014.6
20260504031530 56 76 1.0 6.0 0.00 0.00 0.00 80 1014.4
20260504030029 57 67 3.0 6.0 0.00 0.00 0.00 79 1014.4
20260504024528 58 87 2.0 8.0 0.00 0.00 0.00 78 1014.2
20260504023027 58 116 2.0 7.0 0.00 0.00 0.00 77 1014.2
20260504021528 59 108 3.0 9.0 0.00 0.00 0.00 77 1014.2
20260504020027 59 97 5.0 12.0 0.00 0.00 0.00 75 1014.1
20260504014527 60 110 4.0 14.0 0.00 0.00 0.00 72 1014.0
20260504013025 60 82 8.0 14.0 0.00 0.00 0.00 73 1014.0
20260504011524 61 92 6.0 11.0 0.00 0.00 0.00 70 1014.1
20260504010023 61 97 9.0 14.0 0.00 0.00 0.00 70 1014.2
20260504004533 61 98 6.0 14.0 0.00 0.00 0.00 71 1014.0
20260504003021 60 110 11.0 15.0 0.00 0.00 0.00 70 1013.9
20260504001521 61 121 7.0 15.0 0.00 0.00 0.00 70 1013.9
20260504000021 62 105 8.0 15.0 0.00 0.00 0.00 70 1013.7
20260503234518 61 62 9.0 15.0 0.00 0.00 0.00 69 1013.7
20260503233020 62 99 10.0 15.0 0.00 0.00 0.00 68 1013.7
20260503231516 62 105 8.0 15.0 0.00 0.00 0.00 68 1013.7
20260503230015 62 84 8.0 18.0 0.00 0.00 0.00 66 1013.7
20260503224514 63 115 9.0 17.0 0.00 0.00 0.00 60 1013.7
20260503223014 62 71 7.0 16.0 0.00 0.00 0.00 63 1013.7
20260503221513 64 81 6.0 14.0 0.00 0.00 0.00 59 1013.8
20260503220012 63 46 6.0 13.0 0.00 0.00 0.00 60 1013.9
20260503214511 62 104 9.0 15.0 0.00 0.00 0.00 60 1013.9
20260503213017 63 55 6.0 12.0 0.00 0.00 0.00 57 1014.0
20260503211511 64 124 8.0 14.0 0.00 0.00 0.00 56 1013.9
20260503210008 63 121 9.0 15.0 0.00 0.00 0.00 60 1013.9
20260503204506 63 128 11.0 16.0 0.00 0.00 0.00 62 1013.9
20260503203010 62 115 8.0 15.0 0.00 0.00 0.00 65 1014.0
20260503201505 63 96 9.0 16.0 0.00 0.00 0.00 65 1014.1
20260503200008 62 77 7.0 19.0 0.00 0.00 0.00 67 1014.1
20260503194504 62 116 13.0 19.0 0.00 0.00 0.00 66 1014.2
20260503193002 62 81 7.0 16.0 0.00 0.00 0.00 66 1014.4
20260503191608 62 90 8.0 14.0 0.00 0.00 0.00 62 1014.4
20260503190106 61 100 7.0 14.0 0.00 0.00 0.00 65 1014.5
20260503184559 61 84 7.0 12.0 0.00 0.00 0.00 67 1014.6
20260503183115 61 76 4.0 12.0 0.00 0.00 0.00 68 1014.7
20260503181620 61 90 8.0 15.0 0.00 0.00 0.00 67 1014.8
20260503180059 61 111 5.0 9.0 0.00 0.00 0.00 67 1014.7
20260503174552 60 104 5.0 9.0 0.00 0.00 0.00 71 1014.7
20260503173056 60 222 0.0 3.0 0.00 0.00 0.00 75 1014.7
20260503171547 58 80 1.0 6.0 0.00 0.00 0.00 76 1014.7